パンスターズ彗星

P/2017 S8 ( PanSTARRS )

English version
Home page
Updated on September 10, 2020

---------------------------------------------------------------------

・ プロフィール

発見日 2017年9月30日
発見光度 20.2等
発見者 Pan-STARRS 1 telescope (Haleakala)

・ 写真集

・ 軌道要素

Epoch 2018 Feb. 11.0 TT = JDT 2458160.5                                         
T 2018 Jan. 28.64704 TT                                 Rudenko                 
q   1.6829823            (2000.0)            P               Q                  
n   0.21323754     Peri.  254.56844     +0.08947492     -0.99077336             
a   2.7747697      Node   191.80121     +0.99163573     +0.07907182             
e   0.3934695      Incl.   29.85050     -0.09302049     -0.11007181             
P   4.62                                                                        
From 177 observations 2017 Sept. 25-2018 Feb. 9, mean residual 0".7.            

・ 光度変化

        m1 = 14.0 + 5 logΔ + 20.0 log r(t + 150)

---------------------------------------------------------------------

軌道要素はM.P.E.C. 2020-R04に掲載されたものです。
光度グラフはComet for Windowsで作成したものです。

---------------------------------------------------------------------

Copyright(C) Seiichi Yoshida (comet@aerith.net). All rights reserved.